Time,TemperatureF,DewpointF,PressureIn,WindDirection,WindDirectionDegrees,WindSpeedMPH,WindSpeedGustMPH,Humidity,HourlyPrecipIn,Conditions,Clouds,dailyrainin,SoftwareType,DateUTC
2013-02-13 00:00:00,34.0,-99.9,-100.00,North,-999,-999.0,-999.0,-999,-99.99,,,0.01,,2013-02-13 08:00:00,
2013-02-13 00:52:00,34.0,-99.9,-100.00,North,-999,-999.0,-999.0,-999,-99.99,,,0.01,,2013-02-13 08:52:00,
2013-02-13 01:00:00,34.0,34.0,-100.00,SSW,211,1.0,3.0,103,-99.99,,,0.01,,2013-02-13 09:00:00,
2013-02-13 01:52:00,34.0,34.0,-100.00,SSW,211,1.0,3.0,103,-99.99,,,0.01,,2013-02-13 09:52:00,
2013-02-13 02:00:00,34.0,34.0,-100.00,SSW,196,2.0,4.0,103,-99.99,,,0.01,,2013-02-13 10:00:00,
2013-02-13 02:52:00,34.0,34.0,-100.00,SSW,196,2.0,4.0,103,-99.99,,,0.01,,2013-02-13 10:52:00,
2013-02-13 03:00:00,34.0,34.0,-100.00,WSW,241,3.0,4.0,103,-99.99,,,0.01,,2013-02-13 11:00:00,
2013-02-13 03:52:00,34.0,34.0,-100.00,WSW,241,3.0,4.0,103,-99.99,,,0.01,,2013-02-13 11:52:00,
2013-02-13 04:00:00,34.0,34.0,-100.00,SSW,200,2.0,3.0,103,-99.99,,,0.01,,2013-02-13 12:00:00,
2013-02-13 04:52:00,34.0,34.0,-100.00,SSW,200,2.0,3.0,103,-99.99,,,0.01,,2013-02-13 12:52:00,
2013-02-13 05:00:00,33.0,33.0,-100.00,West,269,1.0,3.0,103,-99.99,,,0.01,,2013-02-13 13:00:00,
2013-02-13 05:52:00,33.0,33.0,-100.00,West,269,1.0,3.0,103,-99.99,,,0.01,,2013-02-13 13:52:00,
2013-02-13 06:00:00,33.0,33.0,-100.00,SSW,200,1.0,2.0,103,-99.99,,,0.01,,2013-02-13 14:00:00,
2013-02-13 06:52:00,33.0,33.0,-100.00,SSW,200,1.0,2.0,103,-99.99,,,0.01,,2013-02-13 14:52:00,
2013-02-13 07:00:00,33.0,33.0,-100.00,SSE,167,2.0,3.0,103,-99.99,,,0.00,,2013-02-13 15:00:00,
2013-02-13 07:52:00,33.0,33.0,-100.00,SSE,167,2.0,3.0,103,-99.99,,,0.00,,2013-02-13 15:52:00,
2013-02-13 08:00:00,33.0,33.0,-100.00,SE,128,2.0,3.0,103,-99.99,,,0.01,,2013-02-13 16:00:00,
2013-02-13 08:52:00,33.0,33.0,-100.00,SE,128,2.0,3.0,103,-99.99,,,0.01,,2013-02-13 16:52:00,
2013-02-13 09:00:00,32.0,32.0,-100.00,SW,219,1.0,3.0,104,-99.99,,,0.01,,2013-02-13 17:00:00,
2013-02-13 09:52:00,32.0,32.0,-100.00,SW,219,1.0,3.0,104,-99.99,,,0.01,,2013-02-13 17:52:00,
2013-02-13 10:00:00,32.0,32.0,-100.00,South,175,1.0,3.0,104,-99.99,,,0.01,,2013-02-13 18:00:00,
2013-02-13 10:52:00,32.0,32.0,-100.00,South,175,1.0,3.0,104,-99.99,,,0.01,,2013-02-13 18:52:00,
2013-02-13 11:00:00,32.0,32.0,-100.00,WNW,301,1.0,3.0,104,-99.99,,,0.00,,2013-02-13 19:00:00,
2013-02-13 11:52:00,32.0,32.0,-100.00,WNW,301,1.0,3.0,104,-99.99,,,0.00,,2013-02-13 19:52:00,
2013-02-13 12:00:00,32.0,32.0,-100.00,South,179,1.0,2.0,103,-99.99,,,0.00,,2013-02-13 20:00:00,
2013-02-13 12:52:00,32.0,32.0,-100.00,South,179,1.0,2.0,103,-99.99,,,0.00,,2013-02-13 20:52:00,
2013-02-13 13:00:00,33.0,33.0,-100.00,South,187,1.0,3.0,103,-99.99,,,0.00,,2013-02-13 21:00:00,
2013-02-13 13:52:00,33.0,33.0,-100.00,South,187,1.0,3.0,103,-99.99,,,0.00,,2013-02-13 21:52:00,
2013-02-13 14:00:00,33.0,33.0,-100.00,SSW,192,2.0,3.0,103,-99.99,,,0.00,,2013-02-13 22:00:00,
2013-02-13 14:52:00,33.0,33.0,-100.00,SSW,192,2.0,3.0,103,-99.99,,,0.00,,2013-02-13 22:52:00,
2013-02-13 15:00:00,32.0,32.0,-100.00,WSW,241,2.0,4.0,103,-99.99,,,0.00,,2013-02-13 23:00:00,
2013-02-13 15:52:00,32.0,32.0,-100.00,WSW,241,2.0,4.0,103,-99.99,,,0.00,,2013-02-13 23:52:00,
2013-02-13 16:00:00,32.0,32.0,-100.00,WSW,245,1.0,2.0,103,-99.99,,,0.00,,2013-02-14 00:00:00,
2013-02-13 16:52:00,32.0,32.0,-100.00,WSW,245,1.0,2.0,103,-99.99,,,0.00,,2013-02-14 00:52:00,
2013-02-13 17:00:00,32.0,32.0,-100.00,SSW,201,1.0,2.0,103,-99.99,,,0.01,,2013-02-14 01:00:00,
2013-02-13 17:51:00,32.0,32.0,-100.00,SSW,201,1.0,2.0,103,-99.99,,,0.01,,2013-02-14 01:51:00,
2013-02-13 18:00:00,32.0,32.0,-100.00,SSW,200,1.0,2.0,103,-99.99,,,0.00,,2013-02-14 02:00:00,
2013-02-13 19:00:00,32.0,32.0,-100.00,SSW,199,1.0,2.0,103,-99.99,,,0.00,,2013-02-14 03:00:00,
2013-02-13 19:52:00,32.0,32.0,-100.00,SSW,199,1.0,2.0,103,-99.99,,,0.00,,2013-02-14 03:52:00,
2013-02-13 20:00:00,32.0,32.0,-100.00,SSW,209,1.0,2.0,103,-99.99,,,0.01,,2013-02-14 04:00:00,
2013-02-13 20:52:00,32.0,32.0,-100.00,SSW,209,1.0,2.0,103,-99.99,,,0.01,,2013-02-14 04:52:00,
2013-02-13 21:00:00,32.0,32.0,-100.00,SSW,197,1.0,2.0,103,-99.99,,,-99.99,,2013-02-14 05:00:00,
2013-02-13 21:52:00,32.0,32.0,-100.00,SSW,197,1.0,2.0,103,-99.99,,,-99.99,,2013-02-14 05:52:00,
2013-02-13 22:00:00,31.0,31.0,-100.00,South,186,1.0,3.0,103,-99.99,,,0.00,,2013-02-14 06:00:00,
2013-02-13 22:52:00,31.0,31.0,-100.00,South,186,1.0,3.0,103,-99.99,,,0.00,,2013-02-14 06:52:00,
2013-02-13 23:00:00,31.0,31.0,-100.00,WSW,239,1.0,3.0,103,-99.99,,,0.01,,2013-02-14 07:00:00,
2013-02-13 23:52:00,31.0,31.0,-100.00,WSW,239,1.0,3.0,103,-99.99,,,0.01,,2013-02-14 07:52:00,